Location: Deposit
(42.0600°N, 75.4280°W)
Time: 10:43:11
(UTC-04:00)

ISS - Visible Passes

Search period start: 21 October 2019 00:00
Search period end: 31 October 2019 00:00
Orbit: 411 x 421 km, 51.6° (Epoch: 21 October)

Date Brightness Start Highest point End Pass type
(mag) Time Alt. Az. Time Alt. Az. Time Alt. Az.
23 Oct -0.8 06:13:24 10° S 06:15:28 15° SE 06:17:31 10° E visible
25 Oct -2.5 06:11:32 10° SSW 06:14:43 41° SE 06:17:55 10° ENE visible
26 Oct -1.8 05:25:34 22° SSE 05:26:14 24° SE 05:29:00 10° E visible
27 Oct -0.2 04:39:33 10° E 04:39:33 10° E 04:39:39 10° E visible
27 Oct -3.8 06:12:29 27° WSW 06:14:08 73° NNW 06:17:30 10° NE visible
28 Oct -2.8 05:26:18 46° E 05:26:18 46° E 05:28:51 10° ENE visible
28 Oct -2.4 06:59:38 10° WNW 07:02:29 25° NNW 07:05:20 10° NE visible
29 Oct -0.2 04:39:58 11° ENE 04:39:58 11° ENE 04:40:05 10° ENE visible
29 Oct -2.8 06:12:52 29° NW 06:13:42 33° NNW 06:16:47 10° NE visible
30 Oct -2.0 05:26:26 27° NNE 05:26:26 27° NNE 05:28:14 10° NE visible
30 Oct -1.8 06:59:53 10° NW 07:02:16 18° N 07:04:39 10° NE visible
